sat.trackr.live / text

‹ back to catalog

ONEWEB-0132

NORAD 47278 · 2020-100W

PAYLOAD ACTIVE UNKNOWN

§ Identity

Operator
Country
UK
Launch date
2020-12-18
Launch site
VOSTO
Launch vehicle
Mass (kg)
RCS (m²)

Purposes: comms

External: N2YO · Heavens-Above · Gunter

§ Orbital elements

Epoch: 2026-09-08T18:30:35.001216Z

Period
109.72 min
Inclination
87.8990°
Eccentricity
0.0001970
Mean motion
13.12444875 rev/d
Perigee alt
1,212.2 km
Apogee alt
1,215.2 km
Semi-major
7,591.9 km
B*
6.9144e-4
RAAN
334.0742°
Arg perigee
100.1993°
Mean anomaly
259.9357°
Rev number
27,554

§ Raw data

ONEWEB-01321 47278U 20100W   26251.77123844  .00000261  00000+0  69144-3 0  99982 47278  87.8990 334.0742 0001970 100.1993 259.9357 13.12444875275546

JSON: /api/v1/satellites/47278 · /tle

For live sub-satellite position, see the globe view (requires WebGL).

§ Visibility from observer

Set your observer location to see the next 7 days of passes ≥ 10°. The values pass through the URL so the page stays shareable.

No JS? Fill the form by hand. The geolocation button needs JavaScript.